Regional Weather Roundup
Issued by NWS

Home | Current Version | Previous Version | Text Only | Print | Product List | Glossary Off
Versions: 1 2 3 4 5 6 7 8 9 10 11 12 13 14 15 16 17 18 19 20 21 22 23 24 25 26 27 28 29 30 31 32 33 34 35 36 37 38 39 40 41 42 43 44 45 46 47 48 49 50

000
ASUS43 KMPX 190201
RWRMN
WEATHER ROUNDUP FOR MINNESOTA
NATIONAL WEATHER SERVICE TWIN CITIES/CHANHASSEN MN
900 PM CDT WED APR 18 2018


NOTE: "FAIR" INDICATES FEW OR NO CLOUDS BELOW 12,000 FEET WITH NO
SIGNIFICANT WEATHER AND/OR OBSTRUCTIONS TO VISIBILITY. N/A MEANS
CURRENT SKY AND/OR WEATHER CONDITIONS ARE NOT AVAILABLE.

MNZ060>063-068>070-190300-
   Twin Cities Metro

CITY           SKY/WX    TMP DP  RH WIND       PRES   REMARKS
TWIN CITIES    CLOUDY    40  26  57 N12       30.12R
ST PAUL        FAIR      40  25  55 N8        30.12R
CRYSTAL        FAIR      39  22  50 N7        30.12R
BLAINE         MOCLDY    41  21  45 N12       30.12R
LAKEVILLE      FAIR      32  28  86 NW5       30.10R WCI  27
EDEN PRAIRIE   FAIR      40  24  53 N8        30.11R
SOUTH ST PAUL  FAIR      39  26  58 N6        30.11R
LAKE ELMO      FAIR      39  25  56 N6        30.11R
$$
MNZ001>005-007-008-013>017-022>024-027-028-190300-
   Northwest Minnesota

CITY           SKY/WX    TMP DP  RH WIND       PRES   REMARKS
BEMIDJI        FAIR      39  13  34 NE3       30.19R
HALLOCK        FAIR      43  19  39 E5        30.24R
ROSEAU         FAIR      41  21  45 E3        30.24R
WARROAD        FAIR      39  12  33 CALM      30.25R
THIEF RVR FALL FAIR      41  20  43 NE9       30.22R
CROOKSTON      FAIR      37  28  70 N7        30.23R
FOSSTON        FAIR      37  14  38 NE3       30.21R
DETROIT LAKES  FAIR      41  23  48 CALM      30.20R
MOORHEAD       FAIR      39  32  75 N3        30.21R
PARK RAPIDS    FAIR      39  17  41 N3        30.18R
MAHNOMEN       FAIR      38  21  49 N6        30.19R
$$
MNZ006-009>011-018-025>026-190300-
   North Central Minnesota

CITY           SKY/WX    TMP DP  RH WIND       PRES   REMARKS
BAUDETTE       FAIR      39  12  33 N7        30.22R
FLAG ISLAND    FAIR      39   7  26 CALM      30.24R
INTL FALLS     FAIR      34  19  54 NE3       30.21R
WASKISH        FAIR      37  18  44 CALM      30.22R
BIG FORK       FAIR      36  10  35 N3        30.20R
LONGVILLE      FAIR      36  18  48 CALM      30.18R
GRAND RAPIDS   FAIR      38  13  35 CALM      30.21R
CRANE LAKE     FAIR      28  18  64 CALM      30.23R
ORR            FAIR      36   3  25 CALM      30.18R
COOK           FAIR      39  10  30 CALM      30.20R
WALKER         FAIR      39  12  32 NE6       30.18R
$$
MNZ012-019>021-037-190300-
   Northeast Minnesota

CITY           SKY/WX    TMP DP  RH WIND       PRES   REMARKS
DULUTH         FAIR      33  10  38 CALM      30.17R
ELY            FAIR      36  14  41 CALM      30.19R
HIBBING        FAIR      34  14  43 CALM      30.18R
EVELETH        FAIR      37  14  38 CALM      30.19R
DULUTH HARBOR  FAIR      36  23  60 N3        30.21R
TWO HARBORS    FAIR      34  18  51 CALM      30.17R
SILVER BAY     FAIR      30  18  59 CALM      30.17R
GRAND MARAIS     N/A     32  20  61 CALM      30.19R
G MARAIS ARPRT FAIR      36  10  35 N6        30.16R
$$
MNZ029>031-032-039>041-046>048-054>057-064-190300-
   West Central Minnesota

CITY           SKY/WX    TMP DP  RH WIND       PRES   REMARKS
FERGUS FALLS   FAIR      43  27  52 CALM      30.17R
WHEATON        PTCLDY    39  30  70 CALM      30.22R
MORRIS         CLOUDY    39  28  65 N7        30.17R
ALEXANDRIA     FAIR      43  23  45 NE9       30.16R
ELBOW LAKE     FAIR      37  29  71 CALM      30.18R
WADENA         FAIR      39  19  45 NE5       30.17R
GLENWOOD       FAIR      39  25  56 NE9       30.15S
APPLETON       CLOUDY    39  28  65 NW7       30.17R
BENSON         CLOUDY    37  28  70 NE3       30.18R
ORTONVILLE     PTCLDY    39  28  65 N5        30.19R
MADISON        CLOUDY    39  30  70 NW7       30.17R
WILLMAR        FAIR      37  27  65 E9        30.18R
$$
MNZ033>034-036-042>043-049>051-058-059-190300-
   Central Minnesota

CITY           SKY/WX    TMP DP  RH WIND       PRES   REMARKS
ST CLOUD       FAIR      38  13  35 NE3       30.15R
SAUK CENTRE    FAIR      40  22  47 N5        30.16R
PAYNESVILLE    FAIR      38  23  54 CALM      30.16R
AITKIN         FAIR      36  18  48 E3        30.17R
PINE RIVER     FAIR      37  16  41 CALM      30.21R
BRAINERD       FAIR      41  13  31 N6        30.17R
STAPLES        FAIR      39  16  38 N3        30.17R
LONG PRAIRIE   FAIR      37  23  56 NW6       30.16R
LITTLE FALLS     N/A    N/A N/A N/A E3          N/A
LITCHFIELD     FAIR      37  19  48 NE6       30.15R
BUFFALO        FAIR      38  15  38 N6        30.15R
MAPLE LAKE     FAIR      38  17  42 N6        30.15R
HUTCHINSON     FAIR      38  22  52 N9        30.15R
$$
MNZ037-044-045-052-053-190300-
   East Central Minnesota

CITY           SKY/WX    TMP DP  RH WIND       PRES   REMARKS
PRINCETON      FAIR      37  16  41 N6        30.16R
MORA           FAIR      36  12  38 NE6       30.18R
RUSH CITY      FAIR      37  16  43 N10       30.14R
MOOSE LAKE     FAIR      34  12  40 NE7       30.17R WCI  28
HINCKLEY       FAIR      36  16  44 N10       30.16R
CLOQUET        FAIR      34   9  35 CALM      30.18R
MCGREGOR       FAIR      34  18  51 CALM      30.19R
$$
MNZ071>073-080-081-089-090-097-098-190300-
   Southwest Minnesota

CITY           SKY/WX    TMP DP  RH WIND       PRES   REMARKS
MONTEVIDEO     CLOUDY    36  27  69 CALM      30.16R
GRANITE FALLS  PTCLDY    33  30  87 W6        30.18R WCI  28
CANBY          PTCLDY    38  31  75 W8        30.19R
MARSHALL       CLOUDY    35  28  75 NW13      30.17R WCI  26
REDWOOD FALLS  CLOUDY    34  28  79 NW7       30.15R WCI  28
OLIVIA         PTCLDY    36  32  87 NE3       30.15R
PIPESTONE      CLOUDY   N/A N/A N/A NW6       30.17R
WINDOM           N/A     30  18  59 CALM      30.15R
WORTHINGTON    CLOUDY    31  30  96 W9        30.17R WCI  23
JACKSON        CLOUDY    32  30  93 W8        30.15R WCI  25
TRACY          PTCLDY    34  29  81 W5        30.16R WCI  30
SLAYTON        CLOUDY    31  28  86 W8        30.15R WCI  24
$$
MNZ065>067-074>077-082>085-091>093-190300-
   South Central Minnesota

CITY           SKY/WX    TMP DP  RH WIND       PRES   REMARKS
MANKATO        FAIR      32  30  92 W7        30.13R WCI  26
NEW ULM        CLOUDY    34  27  75 NW8       30.15R WCI  27
ST JAMES       MOCLDY    30  28  93 W9        30.16R WCI  22
FAIRMONT       FLURRIES  31  29  92 NW8       30.15R WCI  23
GLENCOE        FAIR      36  28  71 N6        30.13R
OWATONNA       FAIR      30  30 100 W6        30.10R WCI  24
WASECA         FAIR      32  32 100 W6        30.12R WCI  26
ALBERT LEA     CLOUDY    30  28  93 W3        30.10R
$$
MNZ078>079-086>088-094>096-190300-
   Southeast Minnesota

CITY           SKY/WX    TMP DP  RH WIND       PRES   REMARKS
ROCHESTER      MOCLDY    29  28  96 NW9       30.07R WCI  20
RED WING       FAIR      39  19  45 N8        30.09R
STANTON        FAIR      32  29  88 CALM      30.09R
DODGE CENTER   FAIR      30  30 100 NW10      30.08R WCI  21
WINONA         MOCLDY    34  32  93 NW5       30.05R WCI  30
AUSTIN         MOCLDY    30  28  93 NW5       30.08R WCI  25
PRESTON        LGT SNOW  30  29  94 NW7       30.07R WCI  23
$$
ABBREVIATIONS USED IN REMARKS
   TC - TEMPERATURES IN CELSIUS
  WCI - WIND CHILL INDEX
   HX - HEAT INDEX
  VSB - VISIBILITY
$$



USA.gov is the U.S. government's official web portal to all federal, state and local government web resources and services.